Vertical_Velocity
-1 -1 -1 -1 -1 -1 -1 -1 -0 -0 -0 -0 -1 -1 -1 -1 -3 -3 -3 -2 -4 -5 -5 -3 -3 -3 -3 1 0 -1 -1 2 4 4 2 1 -0 0 1 2 2 2 1 -1 -1 0 1 2 2 2 2 2 1 1 0 -0 -0 -0 -1 -1 1 2 1 1 -0 1 2 2 -1
-0 -1 -1 -1 -1 -1 -1 -1 -1 -0 -0 -0 -0 -0 -1 -2 -3 -3 -3 -3 -4 -5 -4 -4 -4 -3 -1 -0 -2 -2 -0 2 3 3 3 3 1 0 1 2 3 3 2 -0 -0 0 0 1 3 3 2 2 2 1 -1 -2 0 0 -1 -2 -0 2 3 1 -1 1 2 2 1
-1 -1 -1 -1 -1 -2 -2 -2 -1 -0 -0 0 0 -0 -1 -2 -3 -3 -3 -4 -3 -3 -3 -4 -4 -3 -2 -3 -3 -1 -0 -1 0 2 3 3 1 1 1 2 2 3 3 1 0 -0 -0 2 3 4 3 3 2 -0 -2 -1 2 2 -0 -3 -1 2 4 1 -1 0 3 3 1
-2 -2 -2 -2 -2 -2 -2 -2 -2 -1 -1 -1 -1 -1 -2 -3 -3 -3 -3 -3 -3 -3 -4 -4 -4 -3 -4 -4 -3 -3 -2 -3 -0 1 2 1 1 1 1 0 2 3 2 1 0 -0 -0 2 3 3 3 2 2 1 -0 1 4 3 -0 -3 0 2 3 1 -1 1 2 2 -0
-4 -4 -3 -3 -2 -2 -2 -2 -2 -2 -2 -3 -3 -3 -4 -3 -3 -3 -3 -3 -4 -4 -3 -2 -4 -5 -6 -5 -5 -5 -4 -3 -1 -0 -0 1 2 1 0 -0 2 1 1 2 1 -0 -0 1 1 2 2 1 1 0 1 5 6 3 0 -1 0 1 1 1 0 1 1 1 1
-5 -5 -4 -4 -3 -3 -3 -3 -3 -3 -3 -4 -5 -5 -5 -4 -3 -3 -3 -4 -3 -2 -2 -4 -6 -7 -6 -5 -6 -6 -5 -3 -3 -2 -0 1 1 -0 -1 -0 -0 -0 0 2 1 0 0 1 1 1 1 2 0 1 3 7 6 2 -1 -1 -2 -1 1 3 1 1 1 1 2
-4 -4 -3 -3 -3 -3 -3 -3 -2 -3 -3 -4 -4 -4 -4 -3 -3 -3 -3 -2 -1 -2 -4 -6 -6 -6 -5 -6 -6 -6 -5 -4 -3 -2 -0 -0 -0 0 -0 -2 -2 -0 1 1 1 1 0 0 1 1 2 3 2 2 4 6 3 0 -2 -2 -4 -1 2 4 2 2 2 1 0
-2 -2 -2 -2 -1 -1 -1 -1 -2 -2 -3 -3 -3 -2 -2 -2 -3 -3 -2 -2 -2 -3 -3 -4 -4 -4 -5 -5 -6 -6 -5 -4 -3 -2 -1 -1 -1 -0 -1 -3 -1 1 1 0 1 1 0 -0 0 1 2 3 1 1 2 4 2 -0 -1 -2 -2 -0 3 3 3 2 2 -0 -0
-2 -2 -1 -1 -1 -0 -1 -1 -1 -2 -2 -1 -1 -1 -1 -2 -3 -3 -3 -3 -2 -2 -2 -3 -3 -3 -3 -4 -4 -4 -4 -4 -3 -3 -3 -2 -1 -1 -1 -1 -0 -0 -0 1 2 2 1 1 1 1 2 2 0 -0 1 4 3 1 -1 -0 0 1 3 4 3 2 1 -0 0
-4 -3 -2 -1 -0 -0 -0 -0 -0 0 1 1 1 1 -0 -1 -2 -3 -3 -3 -2 -3 -3 -3 -3 -3 -3 -4 -4 -4 -3 -3 -4 -4 -3 -2 -2 -2 -2 -1 -0 -0 0 2 3 2 2 2 1 1 1 1 -0 0 2 5 4 3 2 2 2 2 3 5 3 1 0 0 0
-4 -4 -3 -2 -2 -1 -0 0 1 2 2 2 2 2 1 0 -0 -1 -1 -2 -3 -3 -3 -1 -2 -2 -3 -3 -4 -4 -3 -3 -3 -3 -3 -3 -2 -2 -2 -1 -1 -0 1 2 2 2 2 3 3 2 1 0 1 1 2 4 5 5 5 4 3 2 3 4 2 1 -0 -0 1
-5 -5 -4 -4 -3 -3 -3 -3 -1 -0 1 1 1 1 1 1 1 1 0 -0 -1 -1 -0 -0 -1 -1 -1 -1 -3 -4 -3 -2 -3 -3 -3 -3 -2 -2 -1 -1 -0 0 1 1 2 3 3 4 4 4 2 -0 1 2 2 4 6 6 6 4 3 2 2 2 2 1 -0 0 3
-5 -4 -4 -3 -2 -2 -3 -3 -3 -2 -1 -1 -1 -0 -0 1 1 2 3 3 3 2 1 0 0 1 0 -1 -1 -2 -2 -2 -2 -2 -2 -2 -2 -1 -0 -0 0 1 1 2 3 4 4 5 5 2 -0 -1 1 2 2 3 4 5 4 3 3 2 1 0 1 2 1 2 3
-4 -3 -3 -1 -0 1 2 0 -2 -3 -3 -2 -2 -2 -2 -1 1 3 6 8 7 6 4 2 2 2 2 1 0 -0 -0 -0 -1 -1 -1 -1 -0 1 1 1 1 1 2 3 5 5 5 4 2 0 -1 -1 1 2 2 3 3 3 2 2 2 1 1 1 2 3 3 2 2
-2 -2 -2 -2 -2 -0 1 1 0 -0 -1 -1 -1 -1 -1 -1 1 5 9 10 7 7 7 6 4 3 4 4 3 2 1 1 1 1 1 1 2 2 2 2 2 2 3 4 5 4 3 1 0 -0 -0 1 2 2 2 2 2 2 2 2 1 1 1 1 2 3 2 1 1
-0 -1 -1 -1 -2 -2 -2 -1 0 1 2 3 2 3 3 3 7 11 13 12 10 10 10 7 4 4 4 5 4 4 4 3 3 2 2 2 3 3 4 4 3 3 4 4 3 2 1 0 2 2 2 2 2 3 3 3 3 3 4 3 2 1 1 1 2 2 1 0 1
3 2 1 0 -0 -1 -2 -2 -2 -1 1 3 4 7 10 12 16 17 16 11 9 9 8 7 5 4 4 4 4 4 5 5 4 2 1 2 3 4 4 4 4 4 4 3 2 1 2 4 4 4 4 3 3 3 3 3 3 4 4 3 2 2 1 1 2 1 0 0 1
6 5 4 3 3 2 1 -0 -2 -2 -3 -3 -1 4 11 15 17 16 14 10 6 4 4 5 6 6 4 3 3 4 6 6 4 2 1 2 3 4 4 4 4 4 3 2 1 2 3 5 5 5 4 4 4 4 4 3 3 3 4 4 3 2 2 2 1 1 0 1 1
9 9 8 7 6 6 6 4 1 -2 -4 -5 -3 0 5 8 8 8 6 5 4 4 5 6 6 5 3 2 3 4 6 6 4 3 2 2 4 4 4 4 4 3 2 2 2 2 3 4 4 4 4 4 4 4 3 2 1 2 3 4 3 3 2 2 1 1 1 1 2
11 12 12 10 9 10 11 10 6 2 -1 -3 -4 -4 -3 -2 -2 -1 1 2 4 8 11 11 8 6 4 4 3 4 5 5 4 4 4 4 4 5 5 4 4 4 3 3 3 4 4 4 4 4 4 4 4 4 2 1 1 1 2 3 3 3 2 1 1 1 1 2 3
11 12 12 12 11 13 14 14 13 10 6 2 -0 -2 -4 -6 -6 -5 -3 1 2 5 7 6 7 7 6 5 3 3 4 3 3 3 4 4 4 4 5 4 5 5 5 4 4 4 5 5 5 4 4 4 3 2 1 1 1 1 2 3 3 2 1 1 1 1 1 2 3
7 9 11 12 13 14 17 18 18 16 13 9 5 3 2 1 -2 -5 -6 -3 -0 1 1 1 2 4 5 6 6 6 6 4 3 3 3 3 4 4 5 5 6 6 6 5 5 5 5 5 4 4 3 3 2 1 1 0 1 1 2 3 3 2 1 1 1 1 1 1 2
2 4 8 12 15 17 19 20 20 20 18 15 12 9 7 8 8 4 -0 -4 -4 -3 -1 1 4 7 10 13 14 14 13 14 13 8 3 0 2 4 4 5 5 4 4 4 4 4 4 4 3 2 2 1 1 0 0 0 1 1 2 2 2 1 1 0 0 0 -0 -0 0
0 -0 1 5 11 17 21 23 23 22 21 20 18 14 11 9 11 12 10 4 -1 -3 -1 1 4 8 12 14 16 18 19 22 21 13 4 -0 0 1 3 4 3 3 3 4 4 3 2 2 2 1 1 0 0 -0 -0 -0 0 1 1 1 1 1 -0 -0 0 -0 -1 -1 -2
1 0 -1 -2 3 9 16 22 24 25 24 24 24 22 18 12 9 11 14 14 8 4 2 1 2 4 7 11 13 15 16 17 15 9 4 3 3 4 4 3 4 6 7 7 7 5 2 1 2 2 1 -1 -1 -1 -1 -1 -1 -1 -0 0 0 -0 -0 -1 -1 -1 -2 -3 -3
2 2 2 -0 0 2 6 12 16 19 21 23 25 27 26 20 13 9 9 12 14 13 10 5 2 1 2 5 8 10 11 10 9 7 6 5 7 7 6 4 8 10 11 11 12 10 8 6 5 5 5 4 0 -1 -2 -3 -2 -1 -1 -1 -1 -1 -1 -2 -2 -1 -0 1 2
4 4 4 3 3 3 4 6 8 10 12 13 16 21 25 27 22 16 11 8 10 12 12 10 6 2 0 3 3 3 4 5 4 6 7 7 7 6 4 4 7 9 9 9 9 10 11 11 7 5 6 9 8 6 4 2 0 -0 -0 -1 -2 -1 -1 0 2 5 8 9 8
6 6 5 5 4 4 4 5 5 7 8 7 6 6 10 17 24 24 21 15 10 8 8 8 8 6 4 6 5 3 1 1 1 2 4 8 8 8 7 5 3 5 7 8 3 1 2 5 6 5 4 4 6 8 8 6 4 2 1 -1 -0 1 3 5 8 10 10 9 5
6 6 6 5 4 3 1 1 3 5 8 9 6 2 0 2 10 18 24 24 20 15 11 8 8 8 8 9 9 7 4 2 1 -1 -0 4 9 10 8 6 4 6 9 10 4 -0 -1 1 4 3 2 0 1 2 2 1 1 1 1 2 3 4 4 5 7 6 4 1 -0
4 5 5 5 4 2 1 0 1 2 4 7 7 5 2 -1 0 5 12 20 24 24 21 18 18 19 20 20 21 20 15 7 3 1 -1 -1 2 5 6 6 5 3 2 2 2 2 1 1 1 1 0 1 1 1 0 0 2 4 5 6 4 2 2 2 1 -0 -1 -1 -0
3 4 4 4 4 3 2 1 0 -0 1 3 6 6 5 2 1 1 4 8 16 22 26 28 26 24 24 27 36 42 41 30 15 7 2 -1 -2 -1 2 6 7 6 4 2 4 3 1 -1 -1 -1 -1 -1 0 2 4 7 9 10 9 7 4 3 2 1 -1 -2 -1 1 3
1 2 3 3 4 4 4 2 1 -0 -0 1 4 6 6 4 2 2 2 3 6 10 16 23 26 27 26 24 22 25 33 44 40 29 17 8 3 -0 -1 1 2 3 3 3 4 3 2 1 -0 -1 -2 -0 2 5 8 10 10 8 6 4 4 4 3 1 0 1 2 3 3
-1 -0 1 2 3 3 3 3 2 1 0 -0 1 4 5 5 3 1 1 2 2 2 4 7 13 20 25 28 24 18 15 20 34 41 42 34 21 11 3 -0 -1 -1 -0 0 2 5 8 12 13 12 11 9 8 7 6 4 4 3 2 1 2 2 1 1 1 2 3 3 3
-3 -2 -1 -0 1 2 2 3 2 2 1 -0 0 2 4 5 4 2 0 0 1 1 1 1 2 6 11 19 24 22 16 8 11 22 35 46 40 28 14 6 4 3 1 0 3 8 14 20 24 26 26 23 17 12 7 3 1 -0 -1 -1 -1 -1 -0 1 2 2 3 4 4
-2 -3 -3 -3 -1 -0 1 1 2 2 1 0 -0 0 2 4 5 4 2 0 0 0 0 -0 -0 -0 1 4 10 16 18 14 7 6 11 25 37 37 28 15 9 6 4 3 6 11 14 16 17 19 21 24 23 19 15 10 7 4 2 0 -0 -1 0 2 3 4 5 6 6
-1 -2 -3 -4 -4 -3 -2 -1 0 1 1 1 1 0 0 1 4 4 4 2 0 -0 -0 -0 -1 -1 -1 -1 0 4 9 14 11 6 2 4 17 28 32 27 19 13 9 7 10 13 14 13 11 10 12 15 17 17 17 15 13 11 9 7 5 4 4 4 5 6 7 7 6
-1 -2 -3 -4 -5 -6 -5 -4 -3 -1 -0 0 1 1 1 0 1 3 4 4 2 0 -1 -0 -0 -1 -1 -1 -1 -0 2 5 9 8 5 -0 3 12 22 28 26 22 19 16 15 14 12 11 9 8 8 9 10 10 11 12 12 12 11 10 9 8 7 6 7 8 7 6 5
0 -0 -1 -3 -5 -6 -7 -8 -7 -5 -4 -2 -1 -0 0 0 0 1 2 4 4 3 1 -0 -1 -1 -1 -1 -1 -1 -0 1 3 5 6 4 3 7 12 18 20 21 21 19 17 14 11 8 7 6 7 8 7 7 6 6 6 6 6 7 6 6 5 5 6 6 5 4 4
2 2 1 -0 -2 -4 -6 -8 -9 -10 -9 -7 -5 -3 -2 -1 -1 -0 0 2 3 3 3 1 -0 -1 -2 -1 -1 -1 -1 -0 1 2 2 3 3 5 8 12 13 14 15 16 15 13 11 8 7 5 5 5 5 5 4 3 2 1 1 1 2 2 2 2 2 2 2 2 3
2 2 2 2 1 0 -1 -4 -7 -9 -11 -12 -11 -8 -6 -3 -2 -2 -1 -0 1 2 2 3 1 -0 -1 -2 -2 -2 -1 -1 -0 0 1 1 1 1 2 5 7 9 11 12 14 14 13 12 10 8 7 6 5 4 4 4 3 2 1 1 1 1 1 1 0 0 0 1 2
2 2 2 2 2 2 2 1 -1 -4 -7 -11 -13 -14 -12 -9 -6 -4 -3 -2 -1 -0 1 2 2 2 1 -1 -3 -3 -3 -2 -1 -1 -0 0 1 0 -0 -0 1 3 6 8 11 13 15 16 16 15 14 12 10 8 6 6 6 5 4 3 3 3 2 2 2 1 1 1 2
Height
5569 5569 5568 5567 5567 5566 5565 5565 5564 5564 5564 5563 5563 5563 5562 5562 5563 5563 5565 5566 5568 5570 5572 5576 5579 5582 5586 5591 5595 5598 5602 5606 5610 5614 5617 5621 5625 5628 5632 5636 5639 5642 5645 5648 5652 5655 5658 5661 5664 5667 5670 5672 5675 5677 5680 5683 5685 5687 5690 5693 5695 5696 5697 5699 5700 5702 5704 5705 5706
5566 5565 5564 5564 5563 5562 5562 5561 5561 5560 5559 5559 5558 5557 5557 5557 5557 5557 5558 5559 5561 5563 5565 5568 5572 5575 5579 5584 5588 5591 5595 5599 5603 5607 5611 5615 5618 5622 5626 5630 5633 5637 5639 5642 5646 5649 5652 5656 5659 5662 5665 5667 5671 5673 5676 5678 5681 5683 5686 5688 5691 5692 5694 5695 5696 5698 5700 5701 5703
5562 5562 5561 5560 5560 5559 5558 5558 5557 5557 5556 5555 5554 5553 5552 5552 5551 5552 5552 5553 5555 5557 5559 5562 5565 5569 5572 5576 5580 5584 5588 5592 5596 5600 5604 5608 5612 5616 5620 5624 5627 5631 5634 5637 5641 5644 5647 5651 5654 5658 5660 5662 5666 5669 5671 5674 5677 5678 5681 5684 5687 5689 5690 5691 5692 5694 5696 5697 5699
5560 5559 5558 5557 5557 5556 5555 5554 5554 5553 5552 5551 5549 5548 5547 5547 5547 5547 5547 5548 5549 5551 5553 5556 5558 5562 5565 5569 5573 5577 5582 5585 5589 5593 5597 5601 5605 5609 5614 5617 5621 5625 5628 5632 5636 5639 5642 5646 5649 5652 5656 5658 5660 5662 5666 5670 5672 5674 5676 5679 5682 5684 5686 5687 5688 5691 5692 5693 5695
5557 5556 5555 5554 5553 5552 5552 5551 5550 5549 5548 5547 5546 5545 5544 5543 5543 5542 5542 5543 5545 5546 5548 5549 5552 5555 5558 5562 5566 5570 5575 5579 5583 5587 5591 5595 5600 5604 5608 5611 5615 5619 5623 5627 5631 5634 5637 5641 5644 5647 5650 5653 5657 5660 5662 5666 5668 5669 5671 5675 5678 5680 5682 5683 5685 5687 5688 5689 5691
5554 5553 5552 5551 5550 5549 5548 5547 5546 5545 5544 5543 5542 5541 5540 5540 5539 5539 5539 5539 5540 5541 5542 5543 5545 5548 5552 5556 5559 5564 5568 5572 5577 5581 5585 5589 5594 5599 5603 5606 5610 5614 5618 5622 5626 5629 5633 5636 5639 5642 5646 5649 5653 5656 5658 5661 5663 5664 5666 5670 5672 5675 5678 5680 5681 5682 5684 5686 5687
5551 5550 5549 5547 5546 5545 5544 5543 5542 5541 5540 5539 5539 5538 5537 5536 5536 5535 5535 5535 5535 5536 5537 5538 5540 5543 5547 5550 5554 5557 5562 5567 5571 5575 5579 5584 5588 5593 5597 5602 5604 5609 5613 5617 5621 5625 5628 5631 5634 5638 5642 5645 5648 5650 5653 5656 5657 5659 5661 5664 5667 5672 5675 5676 5677 5679 5680 5682 5683
5548 5547 5546 5544 5543 5542 5541 5540 5539 5537 5537 5536 5535 5534 5533 5533 5532 5531 5531 5531 5531 5532 5532 5534 5536 5539 5542 5545 5548 5552 5556 5561 5565 5570 5574 5578 5582 5587 5591 5595 5600 5604 5608 5612 5616 5620 5623 5627 5630 5633 5637 5641 5643 5646 5648 5651 5653 5655 5657 5661 5664 5668 5671 5672 5673 5675 5676 5677 5679
5546 5544 5543 5542 5540 5539 5538 5537 5535 5534 5533 5533 5532 5531 5530 5529 5528 5527 5527 5527 5527 5528 5529 5531 5532 5535 5537 5540 5544 5547 5551 5555 5560 5564 5568 5573 5577 5582 5587 5591 5596 5600 5604 5608 5612 5616 5619 5622 5626 5629 5633 5636 5638 5641 5644 5647 5649 5652 5654 5657 5661 5664 5666 5667 5669 5671 5672 5673 5675
5544 5543 5541 5540 5538 5537 5535 5534 5533 5532 5531 5530 5529 5528 5527 5526 5525 5524 5524 5524 5524 5525 5526 5527 5529 5531 5534 5536 5539 5542 5546 5550 5554 5559 5563 5568 5572 5577 5582 5586 5591 5595 5599 5604 5607 5611 5615 5618 5622 5626 5629 5631 5634 5637 5641 5643 5646 5648 5651 5654 5657 5660 5662 5664 5666 5667 5668 5670 5671
5543 5542 5540 5538 5537 5535 5534 5532 5531 5530 5529 5528 5527 5526 5524 5523 5523 5522 5522 5522 5522 5523 5524 5525 5526 5528 5530 5533 5535 5537 5541 5545 5549 5554 5558 5563 5568 5572 5577 5582 5587 5591 5595 5599 5603 5607 5611 5614 5618 5622 5625 5627 5631 5634 5637 5640 5642 5645 5647 5649 5652 5656 5658 5660 5662 5663 5664 5666 5668
5542 5540 5539 5537 5535 5534 5532 5531 5530 5529 5527 5526 5525 5524 5522 5522 5521 5520 5520 5521 5521 5522 5522 5522 5523 5524 5526 5529 5531 5534 5537 5541 5545 5549 5553 5558 5563 5568 5573 5578 5582 5587 5591 5595 5599 5603 5607 5611 5614 5617 5620 5623 5626 5629 5632 5636 5638 5641 5643 5645 5648 5651 5653 5656 5658 5659 5661 5662 5664
5542 5540 5538 5537 5535 5533 5532 5531 5529 5527 5526 5525 5523 5522 5521 5520 5520 5519 5519 5520 5520 5521 5521 5521 5521 5521 5522 5524 5527 5529 5533 5537 5540 5545 5549 5554 5559 5564 5569 5574 5578 5583 5587 5592 5596 5599 5603 5607 5611 5613 5616 5619 5622 5624 5627 5631 5634 5636 5638 5640 5643 5646 5649 5651 5654 5656 5657 5659 5660
5542 5540 5539 5537 5535 5534 5532 5531 5529 5527 5525 5523 5522 5521 5520 5519 5519 5519 5519 5518 5519 5520 5521 5520 5520 5520 5520 5521 5523 5525 5528 5532 5536 5541 5545 5550 5555 5560 5565 5570 5575 5579 5584 5588 5592 5596 5599 5602 5606 5609 5612 5615 5618 5621 5623 5627 5629 5632 5634 5637 5639 5642 5645 5647 5650 5652 5653 5655 5656
5542 5540 5538 5537 5534 5534 5533 5531 5528 5527 5525 5523 5522 5520 5520 5519 5518 5518 5518 5518 5519 5520 5521 5521 5520 5519 5518 5519 5520 5522 5525 5528 5532 5537 5542 5547 5552 5557 5562 5566 5571 5576 5580 5584 5588 5592 5596 5599 5602 5605 5608 5611 5613 5617 5620 5622 5625 5628 5631 5633 5635 5638 5641 5643 5646 5648 5649 5650 5652
5542 5540 5538 5536 5534 5532 5531 5529 5528 5527 5525 5523 5522 5521 5519 5518 5519 5520 5521 5521 5520 5520 5520 5520 5519 5518 5517 5518 5518 5520 5522 5526 5529 5534 5538 5543 5548 5553 5558 5563 5568 5572 5577 5581 5584 5587 5591 5595 5598 5601 5604 5607 5610 5613 5617 5620 5622 5625 5627 5630 5632 5634 5637 5639 5642 5643 5645 5646 5648
5542 5540 5538 5537 5535 5533 5531 5529 5528 5526 5525 5523 5522 5521 5520 5520 5522 5523 5524 5523 5521 5520 5519 5518 5517 5517 5518 5518 5518 5519 5521 5523 5527 5530 5534 5538 5544 5549 5554 5559 5564 5568 5572 5577 5580 5584 5587 5591 5595 5598 5600 5603 5606 5609 5613 5617 5619 5621 5624 5626 5628 5631 5633 5635 5637 5639 5640 5642 5643
5543 5542 5540 5538 5536 5534 5532 5531 5529 5527 5526 5524 5522 5520 5520 5522 5525 5526 5525 5523 5521 5519 5517 5516 5517 5517 5518 5518 5519 5520 5521 5523 5525 5528 5531 5536 5541 5546 5551 5556 5560 5564 5569 5572 5577 5580 5584 5588 5591 5594 5597 5600 5603 5606 5609 5613 5616 5618 5620 5622 5625 5627 5629 5631 5633 5634 5636 5638 5639
5546 5544 5542 5540 5538 5536 5534 5533 5531 5530 5527 5525 5524 5523 5523 5523 5524 5524 5523 5521 5519 5517 5516 5516 5516 5517 5517 5518 5518 5520 5522 5523 5526 5528 5531 5535 5539 5544 5548 5552 5557 5561 5565 5569 5573 5577 5581 5584 5587 5590 5593 5596 5599 5602 5605 5609 5612 5614 5616 5618 5621 5623 5625 5627 5628 5630 5632 5633 5635
5547 5545 5543 5542 5540 5538 5536 5535 5533 5532 5530 5528 5527 5527 5525 5523 5522 5521 5521 5520 5518 5517 5517 5518 5518 5518 5518 5519 5519 5520 5522 5525 5528 5530 5532 5535 5538 5542 5546 5549 5554 5558 5562 5566 5570 5574 5577 5581 5584 5587 5590 5592 5596 5599 5602 5604 5607 5610 5612 5614 5616 5618 5620 5622 5624 5626 5627 5629 5631
5547 5545 5544 5542 5541 5539 5537 5537 5535 5534 5533 5532 5530 5528 5526 5524 5522 5520 5519 5518 5518 5518 5519 5520 5521 5523 5523 5523 5523 5524 5525 5528 5530 5532 5533 5535 5537 5541 5544 5548 5552 5556 5560 5564 5568 5571 5575 5577 5580 5583 5586 5589 5592 5595 5597 5601 5604 5606 5608 5610 5612 5615 5617 5619 5620 5622 5623 5625 5626
5549 5547 5545 5543 5542 5541 5539 5538 5537 5537 5536 5535 5533 5531 5529 5527 5524 5522 5520 5518 5518 5518 5519 5520 5521 5522 5523 5524 5527 5529 5531 5532 5533 5533 5533 5536 5538 5541 5544 5548 5551 5555 5558 5562 5566 5569 5572 5575 5578 5581 5583 5586 5588 5591 5594 5597 5599 5602 5604 5607 5609 5611 5613 5615 5616 5617 5619 5620 5622
5551 5549 5547 5546 5544 5543 5542 5540 5539 5538 5537 5537 5535 5533 5532 5530 5528 5526 5523 5521 5519 5518 5519 5521 5522 5522 5523 5525 5528 5531 5533 5536 5537 5537 5537 5537 5539 5542 5544 5547 5551 5553 5557 5560 5563 5567 5570 5572 5575 5578 5580 5582 5585 5588 5590 5593 5595 5598 5601 5603 5605 5607 5609 5611 5612 5613 5615 5616 5617
5554 5552 5550 5548 5547 5546 5544 5543 5541 5540 5538 5537 5536 5534 5533 5532 5531 5530 5528 5526 5522 5520 5520 5522 5523 5525 5527 5528 5530 5532 5533 5536 5538 5539 5540 5540 5541 5543 5546 5549 5552 5554 5557 5560 5563 5565 5568 5570 5573 5575 5578 5580 5582 5585 5587 5589 5592 5594 5597 5599 5601 5603 5605 5607 5608 5610 5611 5612 5613
5557 5555 5553 5552 5550 5549 5547 5546 5543 5541 5540 5538 5537 5536 5535 5533 5532 5532 5531 5530 5527 5525 5524 5524 5525 5527 5528 5531 5532 5534 5535 5537 5538 5538 5539 5541 5544 5546 5548 5550 5553 5555 5558 5560 5562 5564 5566 5568 5571 5573 5575 5577 5579 5582 5584 5586 5588 5591 5593 5595 5597 5599 5601 5603 5605 5606 5607 5608 5610
5557 5556 5555 5553 5552 5551 5549 5548 5546 5544 5542 5540 5540 5539 5538 5537 5535 5533 5533 5532 5532 5531 5529 5528 5527 5527 5529 5532 5535 5536 5537 5538 5538 5539 5540 5541 5543 5547 5549 5552 5553 5555 5558 5560 5561 5562 5564 5566 5568 5571 5572 5574 5577 5578 5581 5583 5585 5587 5589 5591 5593 5596 5597 5599 5601 5602 5604 5606 5607
5558 5557 5555 5554 5552 5551 5550 5548 5547 5545 5543 5541 5540 5540 5539 5538 5537 5535 5533 5533 5533 5533 5532 5531 5530 5529 5530 5534 5535 5536 5537 5537 5538 5539 5540 5541 5542 5543 5547 5552 5556 5558 5560 5560 5560 5560 5561 5563 5565 5567 5569 5571 5573 5575 5577 5579 5582 5584 5586 5588 5590 5592 5593 5595 5597 5599 5602 5604 5604
5558 5557 5555 5554 5552 5551 5549 5547 5546 5545 5543 5542 5540 5539 5538 5538 5537 5536 5535 5534 5533 5533 5533 5533 5532 5532 5531 5532 5532 5533 5534 5535 5536 5538 5540 5542 5543 5543 5544 5546 5551 5553 5555 5554 5556 5557 5558 5560 5562 5563 5566 5568 5569 5571 5573 5576 5578 5580 5582 5584 5586 5588 5590 5592 5594 5596 5597 5598 5598
5559 5557 5556 5554 5552 5551 5549 5547 5546 5545 5543 5542 5540 5539 5538 5537 5537 5537 5536 5535 5534 5533 5533 5533 5533 5533 5532 5532 5532 5532 5533 5533 5535 5537 5538 5539 5541 5542 5544 5545 5545 5546 5547 5549 5551 5553 5555 5558 5559 5560 5562 5564 5566 5568 5570 5572 5574 5576 5578 5580 5582 5584 5586 5587 5588 5590 5591 5591 5592
5560 5558 5556 5554 5553 5551 5550 5548 5547 5545 5543 5542 5540 5539 5538 5538 5537 5536 5536 5536 5536 5535 5535 5535 5535 5535 5534 5534 5534 5535 5535 5534 5534 5534 5535 5537 5538 5541 5543 5545 5546 5547 5549 5550 5552 5552 5553 5555 5557 5559 5559 5561 5562 5564 5567 5569 5571 5572 5574 5576 5577 5579 5581 5582 5583 5584 5585 5587 5588
5560 5558 5557 5555 5553 5552 5550 5549 5547 5545 5544 5542 5541 5539 5539 5538 5537 5536 5536 5535 5536 5536 5536 5536 5536 5536 5536 5537 5537 5538 5538 5537 5534 5534 5534 5534 5535 5538 5541 5543 5545 5546 5547 5548 5549 5550 5551 5552 5554 5557 5558 5558 5559 5561 5563 5565 5567 5569 5570 5571 5573 5575 5576 5577 5578 5579 5581 5582 5584
5561 5559 5557 5555 5553 5552 5551 5549 5547 5546 5544 5543 5541 5539 5538 5538 5537 5537 5536 5535 5534 5534 5534 5534 5534 5535 5535 5536 5536 5536 5537 5539 5538 5537 5535 5534 5534 5535 5537 5539 5541 5542 5544 5546 5547 5548 5549 5550 5551 5552 5554 5557 5559 5560 5561 5562 5564 5566 5567 5568 5570 5571 5572 5573 5574 5575 5577 5578 5579
5561 5559 5557 5556 5554 5552 5551 5549 5547 5546 5545 5543 5541 5539 5538 5537 5537 5536 5536 5535 5534 5533 5532 5532 5531 5532 5532 5533 5533 5534 5534 5534 5536 5538 5538 5537 5536 5534 5534 5535 5536 5537 5540 5542 5544 5547 5548 5549 5550 5551 5552 5553 5556 5558 5559 5560 5561 5562 5564 5566 5567 5568 5569 5570 5570 5571 5572 5573 5574
5561 5560 5558 5556 5554 5552 5550 5549 5547 5546 5544 5543 5541 5540 5538 5537 5536 5535 5535 5534 5533 5533 5532 5531 5530 5529 5529 5529 5530 5531 5531 5531 5531 5532 5535 5537 5537 5536 5534 5534 5534 5535 5536 5538 5541 5544 5546 5547 5547 5548 5549 5551 5552 5554 5555 5557 5557 5558 5560 5561 5563 5564 5566 5566 5567 5567 5568 5569 5571
5560 5559 5558 5556 5554 5552 5550 5548 5547 5545 5544 5542 5541 5539 5538 5536 5535 5534 5533 5533 5532 5532 5531 5530 5530 5529 5528 5527 5527 5527 5528 5529 5529 5529 5530 5532 5534 5535 5534 5534 5534 5534 5534 5536 5538 5540 5542 5542 5542 5543 5544 5545 5547 5548 5549 5552 5553 5553 5554 5556 5558 5560 5561 5562 5563 5564 5565 5566 5567
5558 5557 5556 5555 5554 5552 5551 5548 5547 5544 5543 5541 5540 5538 5537 5535 5534 5532 5531 5531 5530 5530 5529 5529 5528 5528 5527 5526 5526 5525 5525 5526 5526 5527 5527 5528 5529 5531 5532 5533 5533 5534 5534 5535 5536 5537 5537 5538 5538 5539 5539 5540 5541 5542 5543 5545 5548 5550 5551 5552 5554 5556 5557 5559 5560 5561 5562 5562 5563
5556 5554 5553 5552 5552 5551 5550 5548 5546 5544 5542 5540 5538 5537 5536 5534 5532 5531 5529 5528 5528 5527 5527 5527 5526 5526 5525 5525 5524 5524 5523 5522 5523 5523 5524 5525 5526 5527 5528 5530 5531 5532 5532 5532 5533 5533 5534 5534 5535 5536 5536 5537 5537 5538 5539 5541 5542 5544 5547 5549 5550 5551 5553 5554 5556 5557 5558 5559 5560
5553 5551 5550 5549 5548 5547 5547 5546 5545 5543 5541 5539 5537 5535 5534 5532 5531 5529 5527 5526 5525 5524 5524 5523 5523 5523 5522 5522 5522 5522 5521 5521 5520 5520 5521 5522 5522 5523 5524 5524 5526 5527 5528 5528 5529 5529 5530 5530 5531 5532 5532 5533 5534 5535 5536 5537 5538 5539 5541 5543 5545 5547 5549 5550 5551 5552 5553 5554 5555
5551 5549 5547 5545 5544 5543 5542 5542 5542 5541 5540 5538 5536 5533 5532 5530 5528 5527 5525 5524 5522 5521 5520 5520 5520 5519 5519 5519 5519 5519 5519 5518 5518 5517 5517 5517 5518 5519 5519 5520 5521 5522 5522 5523 5524 5525 5526 5527 5527 5527 5528 5529 5530 5531 5532 5533 5534 5535 5536 5538 5540 5542 5544 5545 5547 5547 5548 5549 5551
5550 5547 5545 5543 5541 5539 5538 5537 5536 5536 5536 5535 5534 5532 5529 5527 5525 5524 5522 5521 5519 5518 5517 5516 5515 5515 5515 5515 5515 5515 5515 5515 5515 5514 5514 5514 5514 5515 5515 5515 5516 5517 5517 5518 5519 5520 5522 5522 5523 5524 5524 5525 5526 5527 5527 5528 5529 5531 5532 5533 5535 5536 5537 5539 5541 5542 5544 5545 5546
5549 5547 5545 5542 5540 5538 5536 5533 5532 5531 5530 5530 5530 5529 5527 5525 5523 5521 5519 5517 5516 5514 5513 5512 5511 5511 5510 5510 5511 5511 5511 5511 5511 5511 5511 5511 5511 5511 5511 5512 5512 5512 5512 5513 5514 5515 5516 5517 5518 5519 5520 5521 5522 5522 5523 5524 5525 5526 5527 5528 5530 5532 5533 5534 5536 5537 5539 5541 5542